Weather History for Carroll, IA

Change the Weather History Date:

Saturday, September 21, 2013

  Actual Average Record
Temperature  
Mean Temperature 55 °F -  
Max Temperature 73 °F 71 °F 96 °F (2005)
Min Temperature 37 °F 46 °F 30 °F (1983)
Degree Days  
Heating Degree Days 10    
Growing Degree Days 5 (Base 50)    
Moisture  
Dew Point 43 °F    
Average Humidity 70    
Maximum Humidity 100    
Minimum Humidity 31    
Precipitation  
Precipitation 0.00 in - - ()
Sea Level Pressure  
Sea Level Pressure 29.97 in    
Wind  
Wind Speed 3 mph (SW)    
Max Wind Speed 7 mph    
Max Gust Speed 12 mph    
Visibility 10 miles    
Events      
Averages and records for this station are not official NWS values.
T = Trace of Precipitation, MM = Missing Value Source: NWS Daily Summary

Daily Weather History Graph

Daily Weather History Graph

Search for Another Location

Airport:

Trip Planner

Search our weather history database for the weather conditions in past years. The results will help you decide how hot, cold, wet, or windy it might be!

Date:

Astronomy

Sep. 21, 2013 Rise Set
Actual Time 7:05 AM CDT 7:17 PM CDT
Civil Twilight 6:37 AM CDT 7:45 PM CDT
Nautical Twilight 6:05 AM CDT 8:18 PM CDT
Astronomical Twilight 5:31 AM CDT 8:51 PM CDT
Moon 8:25 PM CDT (9/21) 9:28 AM CDT (9/21)
Length of Visible Light 13h 07m
Length of Day
12h 11m
Waning Gibbous, 94% of the Moon is Illuminated
Sep 21
Waning Gibbous
Sep 26
Last Quarter
Oct 4
New
Oct 11
First Quarter
Oct 18
Full

Hourly Weather History & Observations

Time (CDT) Temp. Windchill Dew Point Humidity Pressure Visibility Wind Dir Wind Speed Gust Speed Precip Events Conditions
12:15 AM 42.8 °F - 42.8 °F 100% 30.01 in 10.0 mi Calm Calm - N/A   Clear
12:35 AM 42.8 °F 41.1 °F 42.8 °F 100% 30.01 in 10.0 mi West 3.5 mph - N/A   Clear
12:55 AM 42.8 °F 39.3 °F 42.8 °F 100% 30.01 in 10.0 mi WNW 5.8 mph - N/A   Clear
1:15 AM 42.8 °F 40.1 °F 42.8 °F 100% 30.00 in 10.0 mi WNW 4.6 mph - N/A   Clear
1:35 AM 42.8 °F 40.1 °F 42.8 °F 100% 30.00 in 10.0 mi WNW 4.6 mph - N/A   Clear
1:55 AM 42.8 °F 38.6 °F 42.8 °F 100% 30.01 in 10.0 mi West 6.9 mph - N/A   Clear
2:15 AM 42.8 °F 40.1 °F 42.8 °F 100% 30.01 in 10.0 mi West 4.6 mph - N/A   Clear
2:35 AM 42.8 °F - 42.8 °F 100% 30.01 in 10.0 mi Calm Calm - N/A   Clear
2:55 AM 41.0 °F 38.0 °F 41.0 °F 100% 30.01 in 10.0 mi West 4.6 mph - N/A   Clear
3:15 AM 41.0 °F 38.0 °F 41.0 °F 100% 30.00 in 10.0 mi WNW 4.6 mph - N/A   Clear
3:35 AM 41.0 °F 39.0 °F 41.0 °F 100% 30.00 in 10.0 mi West 3.5 mph - N/A   Clear
3:55 AM 41.0 °F - 41.0 °F 100% 30.00 in 10.0 mi Calm Calm - N/A   Clear
4:15 AM 41.0 °F - 41.0 °F 100% 29.99 in 10.0 mi Calm Calm - N/A   Clear
4:35 AM 41.0 °F - 41.0 °F 100% 29.99 in 10.0 mi Calm Calm - N/A   Clear
4:55 AM 39.2 °F - 39.2 °F 100% 29.99 in 7.0 mi Calm Calm - N/A   Clear
5:15 AM 37.4 °F 33.8 °F 37.4 °F 100% 29.99 in 8.0 mi WSW 4.6 mph - N/A   Clear
5:35 AM 39.2 °F - 39.2 °F 100% 29.99 in 10.0 mi Calm Calm - N/A   Clear
5:55 AM 39.2 °F 35.0 °F 39.2 °F 100% 30.00 in 10.0 mi West 5.8 mph - N/A   Clear
6:15 AM 41.0 °F - 41.0 °F 100% 30.01 in 10.0 mi Calm Calm - N/A   Clear
6:35 AM 41.0 °F - 39.2 °F 93% 30.02 in 10.0 mi Calm Calm - N/A   Clear
6:55 AM 41.0 °F - 41.0 °F 100% 30.02 in 10.0 mi Calm Calm - N/A   Clear
7:15 AM 42.8 °F 40.1 °F 41.0 °F 93% 30.02 in 10.0 mi WNW 4.6 mph - N/A   Clear
7:35 AM 41.0 °F 39.0 °F 41.0 °F 100% 30.02 in 10.0 mi WSW 3.5 mph - N/A   Clear
7:55 AM 44.6 °F 42.2 °F 42.8 °F 93% 30.03 in 10.0 mi West 4.6 mph - N/A   Clear
8:15 AM 46.4 °F - 44.6 °F 93% 30.03 in 10.0 mi Calm Calm - N/A   Clear
8:35 AM 48.2 °F - 46.4 °F 93% 30.03 in 10.0 mi Calm Calm - N/A   Clear
8:55 AM 50.0 °F - 46.4 °F 87% 30.03 in 10.0 mi Calm Calm - N/A   Clear
9:15 AM 53.6 °F - 46.4 °F 77% 30.03 in 10.0 mi Calm Calm - N/A   Clear
9:35 AM 55.4 °F - 46.4 °F 72% 30.04 in 10.0 mi Variable 3.5 mph - N/A   Clear
9:55 AM 57.2 °F - 46.4 °F 67% 30.04 in 10.0 mi NW 3.5 mph - N/A   Clear
10:15 AM 60.8 °F - 42.8 °F 52% 30.04 in 10.0 mi Calm Calm - N/A   Clear
10:35 AM 62.6 °F - 42.8 °F 48% 30.03 in 10.0 mi Calm Calm - N/A   Clear
10:55 AM 64.4 °F - 41.0 °F 42% 30.03 in 10.0 mi Calm Calm - N/A   Clear
11:15 AM 64.4 °F - 42.8 °F 45% 30.03 in 10.0 mi Calm Calm - N/A   Clear
11:35 AM 64.4 °F - 41.0 °F 42% 30.02 in 10.0 mi Variable 3.5 mph - N/A   Clear
11:55 AM 66.2 °F - 41.0 °F 40% 30.01 in 10.0 mi NE 6.9 mph - N/A   Clear
12:15 PM 68.0 °F - 41.0 °F 37% 30.01 in 10.0 mi Calm Calm - N/A   Clear
12:35 PM 68.0 °F - 41.0 °F 37% 30.00 in 10.0 mi Calm Calm - N/A   Clear
12:55 PM 68.0 °F - 39.2 °F 35% 30.00 in 10.0 mi Calm Calm - N/A   Clear
1:15 PM 68.0 °F - 39.2 °F 35% 29.99 in 10.0 mi Calm Calm - N/A   Clear
1:35 PM 69.8 °F - 41.0 °F 35% 29.98 in 10.0 mi Variable 5.8 mph - N/A   Clear
1:55 PM 71.6 °F - 39.2 °F 31% 29.98 in 10.0 mi Variable 3.5 mph - N/A   Clear
2:15 PM 71.6 °F - 41.0 °F 33% 29.97 in 10.0 mi Variable 3.5 mph - N/A   Clear
2:35 PM 71.6 °F - 41.0 °F 33% 29.96 in 10.0 mi NW 6.9 mph - N/A   Clear
2:55 PM 71.6 °F - 41.0 °F 33% 29.95 in 10.0 mi West 4.6 mph - N/A   Clear
3:15 PM 71.6 °F - 39.2 °F 31% 29.94 in 10.0 mi West 3.5 mph 11.5 mph N/A   Clear
3:35 PM 71.6 °F - 41.0 °F 33% 29.94 in 10.0 mi Calm Calm - N/A   Clear
3:55 PM 73.4 °F - 41.0 °F 31% 29.93 in 10.0 mi NW 5.8 mph - N/A   Clear
4:15 PM 73.4 °F - 41.0 °F 31% 29.92 in 10.0 mi Variable 3.5 mph - N/A   Clear
4:35 PM 73.4 °F - 41.0 °F 31% 29.91 in 10.0 mi Variable 4.6 mph - N/A   Clear
4:55 PM 73.4 °F - 41.0 °F 31% 29.91 in 10.0 mi SW 4.6 mph - N/A   Clear
5:15 PM 73.4 °F - 41.0 °F 31% 29.90 in 10.0 mi SSE 3.5 mph - N/A   Clear
5:35 PM 73.4 °F - 41.0 °F 31% 29.90 in 10.0 mi Variable 4.6 mph - N/A   Clear
5:55 PM 73.4 °F - 42.8 °F 33% 29.90 in 10.0 mi SW 5.8 mph - N/A   Clear
6:15 PM 73.4 °F - 42.8 °F 33% 29.89 in 10.0 mi SSE 4.6 mph - N/A   Clear
6:35 PM 71.6 °F - 46.4 °F 41% 29.89 in 10.0 mi South 4.6 mph - N/A   Clear
6:55 PM 68.0 °F - 48.2 °F 49% 29.89 in 10.0 mi South 4.6 mph - N/A   Clear
7:15 PM 64.4 °F - 48.2 °F 56% 29.89 in 10.0 mi South 5.8 mph - N/A   Clear
7:35 PM 60.8 °F - 48.2 °F 63% 29.89 in 10.0 mi South 5.8 mph - N/A   Clear
7:55 PM 60.8 °F - 48.2 °F 63% 29.90 in 10.0 mi South 5.8 mph - N/A   Clear
8:15 PM 59.0 °F - 50.0 °F 72% 29.91 in 10.0 mi South 5.8 mph - N/A   Clear
8:35 PM 57.2 °F - 50.0 °F 77% 29.91 in 10.0 mi SSE 4.6 mph - N/A   Clear
8:55 PM 55.4 °F - 50.0 °F 82% 29.91 in 10.0 mi SSE 4.6 mph - N/A   Clear
9:15 PM 55.4 °F - 50.0 °F 82% 29.91 in 10.0 mi SSE 4.6 mph - N/A   Clear
9:35 PM 53.6 °F - 50.0 °F 88% 29.91 in 10.0 mi SSE 4.6 mph - N/A   Clear
9:55 PM 53.6 °F - 50.0 °F 88% 29.91 in 10.0 mi SSE 5.8 mph - N/A   Clear
10:15 PM 53.6 °F - 50.0 °F 88% 29.91 in 10.0 mi SSE 5.8 mph - N/A   Clear
10:35 PM 53.6 °F - 50.0 °F 88% 29.91 in 10.0 mi SSE 5.8 mph - N/A   Clear
10:55 PM 55.4 °F - 50.0 °F 82% 29.92 in 10.0 mi SSE 5.8 mph - N/A   Clear
11:15 PM 53.6 °F - 50.0 °F 88% 29.91 in 10.0 mi South 5.8 mph - N/A   Clear
11:35 PM 53.6 °F - 48.2 °F 82% 29.92 in 10.0 mi South 4.6 mph - N/A   Clear
11:55 PM 53.6 °F - 48.2 °F 82% 29.91 in 10.0 mi South 5.8 mph - N/A   Clear